| time (UTC) | temp F | wind direction | speed MPH | gust MPH | rain 1hr in | rain 24hr in | rain mn in | humidity % | barometer mb |
| 20260902141436 | 66 | 310 | 1.0 | 3.0 | 0.00 | 0.63 | 0.00 | 69 | 1017.2 |
| 20260902134435 | 67 | 131 | 0.0 | 0.0 | 0.00 | 0.63 | 0.00 | 69 | 1017.2 |
| 20260902131435 | 66 | 315 | 0.0 | 1.0 | 0.00 | 0.63 | 0.00 | 72 | 1017.2 |
| 20260902124436 | 63 | 327 | 3.0 | 3.0 | 0.00 | 0.63 | 0.00 | 75 | 1017.2 |
| 20260902121436 | 63 | 315 | 0.0 | 2.0 | 0.00 | 0.63 | 0.00 | 78 | 1017.6 |
| 20260902114436 | 62 | 319 | 1.0 | 2.0 | 0.00 | 0.63 | 0.00 | 79 | 1017.6 |
| 20260902111436 | 62 | 301 | 0.0 | 0.0 | 0.00 | 0.63 | 0.00 | 82 | 1017.2 |
| 20260902104436 | 61 | 272 | 0.0 | 0.0 | 0.00 | 0.63 | 0.00 | 85 | 1017.6 |
| 20260902101436 | 53 | 206 | 0.0 | 0.0 | 0.00 | 0.63 | 0.00 | 99 | 1017.6 |
| 20260902094436 | 53 | 206 | 0.0 | 0.0 | 0.00 | 0.63 | 0.00 | 99 | 1017.6 |
| 20260902091435 | 53 | 206 | 0.0 | 0.0 | 0.00 | 0.63 | 0.00 | 99 | 1017.6 |
| 20260902084435 | 53 | 206 | 0.0 | 0.0 | 0.00 | 0.63 | 0.00 | 99 | 1017.6 |
| 20260902081435 | 53 | 206 | 0.0 | 0.0 | 0.00 | 0.63 | 0.00 | 99 | 1017.6 |
| 20260902074436 | 53 | 206 | 0.0 | 0.0 | 0.00 | 0.63 | 0.00 | 99 | 1017.6 |
| 20260902071435 | 53 | 206 | 0.0 | 0.0 | 0.00 | 0.63 | 0.00 | 99 | 1017.6 |
| 20260902064437 | 53 | 206 | 0.0 | 0.0 | 0.00 | 0.63 | 0.00 | 99 | 1017.6 |
| 20260902061435 | 53 | 206 | 0.0 | 0.0 | 0.00 | 0.63 | 0.00 | 99 | 1017.6 |
| 20260902054436 | 53 | 206 | 0.0 | 0.0 | 0.00 | 0.63 | 0.00 | 99 | 1017.6 |
| 20260902051436 | 53 | 206 | 0.0 | 0.0 | 0.00 | 0.63 | 0.00 | 99 | 1017.6 |
| 20260902044436 | 53 | 206 | 0.0 | 0.0 | 0.00 | 0.63 | 0.00 | 99 | 1017.6 |
| 20260902041436 | 53 | 206 | 0.0 | 0.0 | 0.00 | 0.63 | 0.00 | 99 | 1017.6 |
| 20260902034435 | 53 | 206 | 0.0 | 0.0 | 0.00 | 0.63 | 0.00 | 99 | 1017.6 |
| 20260902031436 | 53 | 183 | 0.0 | 0.0 | 0.00 | 0.63 | 0.00 | 99 | 1017.6 |
| 20260902024436 | 53 | 199 | 0.0 | 0.0 | 0.00 | 0.63 | 0.00 | 99 | 1017.6 |
| 20260902021436 | 53 | 183 | 0.0 | 0.0 | 0.00 | 0.63 | 0.00 | 99 | 1017.6 |
| 20260902014436 | 53 | 177 | 0.0 | 0.0 | 0.00 | 0.63 | 0.00 | 99 | 1017.6 |
| 20260902011436 | 55 | 199 | 0.0 | 0.0 | 0.00 | 0.63 | 0.00 | 99 | 1017.6 |
| 20260902004436 | 55 | 189 | 0.0 | 0.0 | 0.00 | 0.63 | 0.00 | 97 | 1017.2 |
| 20260902001436 | 56 | 157 | 0.0 | 0.0 | 0.00 | 0.63 | 0.00 | 97 | 1017.6 |
| 20260901234435 | 56 | 218 | 0.0 | 0.0 | 0.00 | 0.63 | 0.00 | 97 | 1017.6 |
| 20260901231435 | 56 | 166 | 0.0 | 0.0 | 0.00 | 0.63 | 0.00 | 97 | 1017.9 |
| 20260901224437 | 56 | 220 | 0.0 | 0.0 | 0.00 | 0.63 | 0.00 | 97 | 1017.9 |
| 20260901221436 | 57 | 201 | 0.0 | 0.0 | 0.00 | 0.63 | 0.20 | 96 | 1017.9 |
| 20260901214436 | 57 | 224 | 0.0 | 0.0 | 0.00 | 0.63 | 0.20 | 95 | 1017.9 |
| 20260901211436 | 58 | 171 | 0.0 | 0.0 | 0.00 | 0.63 | 0.20 | 94 | 1017.6 |
| 20260901204436 | 58 | 194 | 0.0 | 0.0 | 0.00 | 0.63 | 0.20 | 94 | 1017.9 |
| 20260901201436 | 58 | 238 | 0.0 | 0.0 | 0.00 | 0.63 | 0.20 | 94 | 1017.6 |
| 20260901193235 | 58 | 249 | 0.0 | 0.0 | 0.00 | 0.63 | 0.20 | 95 | 1017.6 |
| 20260901190236 | 58 | 197 | 0.0 | 0.0 | 0.00 | 0.63 | 0.20 | 95 | 1017.6 |
| 20260901183236 | 59 | 232 | 0.0 | 0.0 | 0.00 | 0.63 | 0.20 | 95 | 1017.2 |
| 20260901180235 | 59 | 216 | 0.0 | 0.0 | 0.00 | 0.63 | 0.20 | 94 | 1016.9 |
| 20260901173235 | 60 | 287 | 0.0 | 0.0 | 0.00 | 0.63 | 0.20 | 92 | 1016.9 |
| 20260901170236 | 60 | 154 | 0.0 | 0.0 | 0.00 | 0.63 | 0.20 | 92 | 1016.9 |
| 20260901163235 | 60 | 215 | 0.0 | 0.0 | 0.00 | 0.63 | 0.20 | 93 | 1016.9 |
| 20260901160237 | 60 | 242 | 0.0 | 0.0 | 0.00 | 0.63 | 0.20 | 93 | 1016.5 |
| 20260901153236 | 60 | 250 | 0.0 | 0.0 | 0.00 | 0.63 | 0.20 | 94 | 1016.9 |
| 20260901150236 | 60 | 270 | 0.0 | 0.0 | 0.00 | 0.63 | 0.20 | 96 | 1016.5 |